Regional Weather Roundup
Issued by NWS Lake Charles, LA

Home | Current Version | Previous Version | Text Only | Print | Product List | Glossary On
Versions: 1 2 3 4 5 6 7 8 9 10 11 12 13 14 15 16 17 18 19 20 21 22 23 24 25 26 27 28 29 30 31 32 33 34 35 36 37 38 39 40 41 42 43 44 45 46 47 48 49 50
265
ASUS44 KLCH 200910
RWRLCH
REGIONAL WEATHER ROUNDUP
NATIONAL WEATHER SERVICE LAKE CHARLES LA
300 AM CST FRI JAN 20 2017

Note: "fair" indicates few or no clouds below 12,000 feet with no
significant weather and/or obstructions to visibility.


ACROSS SOUTHEAST TEXAS

CITY           SKY/WX    TMP DP  RH WIND       PRES   REMARKS
BEAUMONT       CLOUDY    64  63  96 SW6       29.75S FOG
BEAUMONT CITY  CLOUDY    64  62  94 S6        29.76S
ORANGE         FOG      N/A N/A N/A SW3       29.78R VSB 1/2
JASPER         CLOUDY    61  60  99 S6        29.77S FOG
$$

ACROSS CENTRAL LOUISIANA

CITY           SKY/WX    TMP DP  RH WIND       PRES   REMARKS
LEESVILLE      CLOUDY    60  60  98 S8        29.75S
FULLERTON      CLOUDY    61  60  97 VRB5      29.73S FOG
ALEXANDRIA INT CLOUDY    60  60 100 S6        29.74F
ESLER FIELD    CLOUDY    60  60 100 SW8       29.76F
DERIDDER       CLOUDY    61  60  96 CALM      29.78S
OAKDALE        CLOUDY    63  62  97 S3        29.77S FOG
OPELOUSAS      CLOUDY    62  61  98 SE6       29.79R VSB 1
$$

ACROSS SOUTHWEST AND SOUTH CENTRAL LOUISIANA

CITY           SKY/WX    TMP DP  RH WIND       PRES   REMARKS
SULPHUR        FOG       64  63  99 S3        29.77S VSB 3/4
LAKE CHARLES   PTCLDY    64  63  96 SW3       29.76S
CHENNAULT INT  FOG       58  58 100 CALM      29.77S VSB 1/2
CAMERON PHI    NOT AVBL
DEQUINCY       FOG       62  61  99 S5        29.77S VSB 1
JENNINGS       NOT AVBL
LAFAYETTE      FOG       65  64  97 S5        29.79R VSB 1/4
NEW IBERIA     MOCLDY    61  59  93 SE3       29.79S FOG
ABBEVILLE      FAIR      63  63 100 CALM      29.79S FOG
PATTERSON      NOT AVBL
SALT POINT     NOT AVBL
$$

SELECTED SITES ACROSS THE REGION

CITY           SKY/WX    TMP DP  RH WIND       PRES   REMARKS
HOUSTON BUSH   FOG       60  59  96 SW7       29.75S VSB 1/4
HOUSTON HOBBY  FOG       58  58 100 SW5       29.75S VSB 1/4
GALVESTON      FOG       62  62 100 S5        29.77R VSB 1/2
COLLEGE STAT   CLOUDY    60  59  96 S9        29.74R FOG
CONROE         CLOUDY    60  58  92 S9        29.75R
HUNTSVILLE     MOCLDY    59  57  93 SW7       29.73R
LUFKIN         CLOUDY    59  57  93 SW5       29.72F
SHREVEPORT     MOCLDY    59  57  93 S10       29.69S
MONROE         CLEAR     58  56  93 S6        29.74S
NATCHEZ MS     CLOUDY    57  55  94 S8        29.78S
BATON ROUGE    CLOUDY    63  62  97 S6        29.79S FOG
N.O. INTL ARPT MOCLDY    64  63  96 S5        29.81S
SLIDELL        CLEAR     62  61  96 S3        29.80F
$$

MARINE REPORTS

STATION/POSITION TIME  SKY/WX   TEMP    WIND        PRES    VSBY
                                AIR SEA DIR/SP/G
                 (UTC)          (F)     (DEG/KT/KT) (MB)    (MI)
BUOY 30 S HIGH I 0850            65 66  230/  4/  4 1007.8S
WVE H/P(F/S)=  2/ 6

SEA RIM ST PARK  0900            64     220/  5/  6 1008.3S
PORT ARTHUR      0848               64  220/  5/  7 1007.9R
SABINE PASS N    0842            63 67  170/  4/  5 1009.1S
TEXAS POINT      NOT AVBL
CALCASIEU PASS   0848            65 64  200/  8/  9   N/A
LK CHARLES BEACH 0848            63 66              1008.3R
MARSH ISLAND     0800            67                   N/A
FRESH WATER LOCK 0848            65 69  150/  5/  7 1009.1F
AMERADA PASS     0848            65 54  140/  3/  5 1009.1S
$$




USA.gov is the U.S. government's official web portal to all federal, state and local government web resources and services.